EW4784 Weather Reports


Display with metric or nautical units.
time (UTC)temp
F
wind
direction
speed
MPH
gust
MPH
rain 1hr
in
rain 24hr
in
rain mn
in
humidity
%
barometer
mb
20260906131909 65 4 5.0 13.0 0.00 0.00 0.00 95 1020.4
20260906131408 64 4 2.0 13.0 0.00 0.00 0.00 96 1020.5
20260906130907 64 4 3.0 14.0 0.00 0.00 0.00 96 1020.5
20260906130406 64 21 3.0 10.0 0.00 0.00 0.00 97 1020.4
20260906125926 63 2 4.0 15.0 0.00 0.00 0.00 97 1020.4
20260906125404 63 1 3.0 8.0 0.00 0.00 0.00 97 1020.5
20260906124904 63 9 1.0 10.0 0.00 0.00 0.00 98 1020.5
20260906124403 63 358 0.0 4.0 0.00 0.00 0.00 98 1020.5
20260906123901 62 12 1.0 7.0 0.00 0.00 0.00 98 1020.5
20260906123400 62 25 1.0 6.0 0.00 0.00 0.00 98 1020.5
20260906122859 61 11 2.0 9.0 0.00 0.00 0.00 98 1020.4
20260906122358 61 7 0.0 1.0 0.00 0.00 0.00 98 1020.4
20260906121858 61 6 0.0 4.0 0.00 0.00 0.00 98 1020.4
20260906121357 60 352 0.0 0.0 0.00 0.00 0.00 98 1020.4
20260906120855 60 336 0.0 3.0 0.00 0.00 0.00 99 1020.4
20260906120354 60 5 0.0 0.0 0.00 0.00 0.00 99 1020.3
20260906115854 59 5 0.0 0.0 0.00 0.00 0.00 98 1020.3
20260906115352 59 357 0.0 3.0 0.00 0.00 0.00 98 1020.3
20260906114851 58 352 0.0 0.0 0.00 0.00 0.00 98 1020.2
20260906114350 58 350 0.0 0.0 0.00 0.00 0.00 98 1020.2
20260906113849 58 350 0.0 0.0 0.00 0.00 0.00 98 1020.1
20260906113348 57 352 0.0 0.0 0.00 0.00 0.00 98 1020.0
20260906112847 57 352 0.0 0.0 0.00 0.00 0.00 98 1020.0
20260906112346 58 352 0.0 0.0 0.00 0.00 0.00 98 1020.0
20260906111845 58 352 0.0 0.0 0.00 0.00 0.00 98 1020.0
20260906111344 58 352 0.0 0.0 0.00 0.00 0.00 98 1019.9
20260906110843 57 352 0.0 0.0 0.00 0.00 0.00 98 1019.9
20260906110342 58 352 0.0 0.0 0.00 0.00 0.00 98 1019.9
20260906105841 58 352 0.0 0.0 0.00 0.00 0.00 98 1019.9
20260906105401 57 352 0.0 0.0 0.00 0.00 0.00 98 1019.8
20260906104839 57 352 0.0 0.0 0.00 0.00 0.00 98 1019.8
20260906104359 57 352 0.0 0.0 0.00 0.00 0.00 98 1019.8
20260906103837 57 356 0.0 3.0 0.00 0.00 0.00 98 1019.9
20260906103336 57 348 0.0 0.0 0.00 0.00 0.00 97 1019.8
20260906102835 57 348 0.0 0.0 0.00 0.00 0.00 98 1019.6
20260906102334 57 348 0.0 0.0 0.00 0.00 0.00 97 1019.6
20260906101833 57 348 0.0 0.0 0.00 0.00 0.00 97 1019.6
20260906101332 57 348 0.0 0.0 0.00 0.00 0.00 98 1019.6
20260906100831 57 348 0.0 0.0 0.00 0.00 0.00 98 1019.6
20260906100330 57 348 0.0 0.0 0.00 0.00 0.00 97 1019.6
20260906095829 57 349 0.0 3.0 0.00 0.00 0.00 98 1019.5
20260906095328 57 350 0.0 0.0 0.00 0.00 0.00 97 1019.5
20260906094848 57 350 0.0 0.0 0.00 0.00 0.00 97 1019.5
20260906094326 57 350 0.0 0.0 0.00 0.00 0.00 97 1019.4
20260906093825 57 350 0.0 0.0 0.00 0.00 0.00 97 1019.4
20260906093324 57 348 0.0 0.0 0.00 0.00 0.00 97 1019.4
20260906092823 57 347 0.0 0.0 0.00 0.00 0.00 97 1019.4
20260906092322 57 347 0.0 0.0 0.00 0.00 0.00 97 1019.4
20260906091821 58 347 0.0 0.0 0.00 0.00 0.00 97 1019.5
20260906091320 58 347 0.0 0.0 0.00 0.00 0.00 97 1019.5
20260906090839 58 347 0.0 0.0 0.00 0.00 0.00 97 1019.4
20260906090317 58 343 0.0 2.0 0.00 0.00 0.00 97 1019.4
20260906085817 58 349 0.0 0.0 0.00 0.00 0.00 97 1019.4
20260906085316 58 349 0.0 2.0 0.00 0.00 0.00 97 1019.3
20260906084836 58 345 0.0 1.0 0.00 0.00 0.00 97 1019.3
20260906084314 58 347 1.0 5.0 0.00 0.00 0.00 97 1019.4
20260906083813 58 353 0.0 0.0 0.00 0.00 0.00 96 1019.4
20260906083312 58 358 0.0 1.0 0.00 0.00 0.00 96 1019.3
20260906082811 58 355 0.0 3.0 0.00 0.00 0.00 96 1019.3
20260906082309 58 352 0.0 0.0 0.00 0.00 0.00 96 1019.2
20260906081830 58 7 1.0 4.0 0.00 0.00 0.00 96 1019.2
20260906081328 58 13 0.0 3.0 0.00 0.00 0.00 96 1019.2
20260906080828 58 6 0.0 3.0 0.00 0.00 0.00 96 1019.2
20260906080306 58 4 2.0 7.0 0.00 0.00 0.00 96 1019.1
20260906075826 58 346 0.0 1.0 0.00 0.00 0.00 96 1019.1
20260906075306 58 345 0.0 2.0 0.00 0.00 0.00 96 1019.1
20260906074803 58 345 0.0 0.0 0.00 0.00 0.00 96 1019.0
20260906074302 58 5 0.0 4.0 0.00 0.00 0.00 96 1019.0
20260906073801 58 357 1.0 3.0 0.00 0.00 0.00 96 1019.0
20260906073259 58 12 0.0 2.0 0.00 0.00 0.00 95 1019.0
20260906072758 58 7 1.0 3.0 0.00 0.00 0.00 95 1019.0
20260906072258 58 351 1.0 4.0 0.00 0.00 0.00 95 1019.0
20260906071756 58 354 2.0 6.0 0.00 0.00 0.00 95 1019.0
20260906071255 58 9 3.0 9.0 0.00 0.00 0.00 95 1019.0
20260906070755 58 6 2.0 6.0 0.00 0.00 0.00 95 1019.0
20260906070253 58 346 2.0 7.0 0.00 0.00 0.00 95 1019.0
20260906065752 58 344 1.0 3.0 0.00 0.00 0.00 95 1018.9
20260906065251 58 342 2.0 5.0 0.00 0.00 0.00 94 1018.8
20260906064750 58 348 1.0 6.0 0.00 0.00 0.00 94 1018.7
20260906064250 58 349 0.0 1.0 0.00 0.00 0.00 94 1018.7
20260906063749 58 0 0.0 1.0 0.00 0.00 0.00 94 1018.6
20260906063247 58 1 1.0 5.0 0.00 0.00 0.00 93 1018.7
20260906062746 58 11 1.0 5.0 0.00 0.00 0.00 93 1018.7
20260906062246 58 0 0.0 3.0 0.00 0.00 0.00 93 1018.8
20260906061744 59 358 0.0 0.0 0.00 0.00 0.00 93 1018.7
20260906061305 59 1 1.0 3.0 0.00 0.00 0.00 93 1018.7
20260906060743 59 6 1.0 6.0 0.00 0.00 0.00 93 1018.7
20260906060241 59 349 1.0 5.0 0.00 0.00 0.00 93 1018.7
20260906055740 59 10 1.0 6.0 0.00 0.00 0.00 93 1018.7
20260906055300 59 354 1.0 5.0 0.00 0.00 0.00 93 1018.7
20260906054800 59 357 0.0 7.0 0.00 0.00 0.00 93 1018.7
20260906054258 59 1 0.0 2.0 0.00 0.00 0.00 92 1018.8
20260906053736 59 346 1.0 5.0 0.00 0.00 0.00 92 1018.9
20260906053235 59 342 2.0 5.0 0.00 0.00 0.00 92 1018.8
20260906052734 59 349 2.0 6.0 0.00 0.00 0.00 92 1018.8
20260906052233 59 354 1.0 5.0 0.00 0.00 0.00 91 1018.8
20260906051733 59 356 1.0 4.0 0.00 0.00 0.00 92 1018.8
20260906051232 59 356 0.0 0.0 0.00 0.00 0.00 91 1018.8
20260906050730 59 1 0.0 2.0 0.00 0.00 0.00 91 1018.8
20260906050230 59 344 0.0 2.0 0.00 0.00 0.00 91 1018.8
20260906045749 59 7 0.0 3.0 0.00 0.00 0.00 90 1018.7
20260906045227 59 6 0.0 3.0 0.00 0.00 0.00 90 1018.7
20260906044726 59 345 0.0 0.0 0.00 0.00 0.00 89 1018.6
20260906044225 60 345 0.0 0.0 0.00 0.00 0.00 89 1018.7
20260906043724 60 345 0.0 0.0 0.00 0.00 0.00 89 1018.7
20260906043244 60 345 0.0 0.0 0.00 0.00 0.00 88 1018.7
20260906042743 60 345 0.0 0.0 0.00 0.00 0.00 88 1018.6
20260906042242 60 343 0.0 0.0 0.00 0.00 0.00 87 1018.5
20260906041720 61 344 0.0 1.0 0.00 0.00 0.00 86 1018.5
20260906041219 61 342 0.0 0.0 0.00 0.00 0.00 86 1018.4
20260906040718 61 342 0.0 0.0 0.00 0.00 0.00 86 1018.4
20260906040217 61 353 0.0 0.0 0.00 0.00 0.00 85 1018.3
20260906035716 61 347 0.0 4.0 0.00 0.00 0.00 85 1018.3
20260906035215 61 332 0.0 0.0 0.00 0.00 0.00 84 1018.2
20260906034736 61 55 0.0 0.0 0.00 0.00 0.00 84 1018.2
20260906034213 62 20 0.0 1.0 0.00 0.00 0.00 83 1018.3
20260906033713 62 355 0.0 0.0 0.00 0.00 0.00 83 1018.3
20260906033212 62 350 1.0 8.0 0.00 0.00 0.00 83 1018.2
20260906032710 62 22 0.0 1.0 0.00 0.00 0.00 82 1018.2
20260906032209 63 16 0.0 3.0 0.00 0.00 0.00 82 1018.2
20260906031708 63 358 2.0 6.0 0.00 0.00 0.00 82 1018.2
20260906031207 63 319 0.0 5.0 0.00 0.00 0.00 82 1018.2
20260906030706 63 351 0.0 3.0 0.00 0.00 0.00 81 1018.2
20260906030206 63 19 1.0 11.0 0.00 0.00 0.00 82 1018.2
20260906025725 63 321 0.0 3.0 0.00 0.00 0.00 82 1018.2
20260906025203 64 346 0.0 4.0 0.00 0.00 0.00 81 1018.1
20260906024724 64 358 0.0 1.0 0.00 0.00 0.00 80 1018.0
20260906024201 64 357 0.0 3.0 0.00 0.00 0.00 80 1018.0
20260906023700 64 38 1.0 5.0 0.00 0.00 0.00 80 1018.0
20260906023159 65 28 0.0 0.0 0.00 0.00 0.00 79 1018.0
20260906022658 65 111 0.0 4.0 0.00 0.00 0.00 78 1018.0
20260906022157 65 90 1.0 7.0 0.00 0.00 0.00 78 1018.0
20260906021656 65 3 2.0 7.0 0.00 0.00 0.00 78 1018.0
20260906021155 66 9 2.0 10.0 0.00 0.00 0.00 77 1018.0
20260906020654 66 77 2.0 8.0 0.00 0.00 0.00 77 1018.0
20260906020153 66 106 2.0 10.0 0.00 0.00 0.00 77 1017.9
20260906015652 66 133 1.0 7.0 0.00 0.00 0.00 77 1017.8
20260906015151 66 86 1.0 6.0 0.00 0.00 0.00 76 1017.8
20260906014650 66 77 2.0 11.0 0.00 0.00 0.00 76 1017.8
20260906014149 67 30 1.0 8.0 0.00 0.00 0.00 75 1017.8
20260906013648 67 24 2.0 9.0 0.00 0.00 0.00 74 1017.8
20260906013147 67 31 1.0 5.0 0.00 0.00 0.00 74 1017.7
20260906012646 67 16 1.0 6.0 0.00 0.00 0.00 73 1017.5
20260906012145 67 354 1.0 5.0 0.00 0.00 0.00 73 1017.4
20260906011705 68 356 1.0 5.0 0.00 0.00 0.00 72 1017.3
20260906011143 68 114 1.0 9.0 0.00 0.00 0.00 72 1017.2
20260906010702 68 56 2.0 8.0 0.00 0.00 0.00 71 1017.3
20260906010141 68 307 1.0 14.0 0.00 0.00 0.00 71 1017.3
20260906005639 68 11 2.0 9.0 0.00 0.00 0.00 71 1017.1
20260906005139 69 34 2.0 7.0 0.00 0.00 0.00 70 1016.9
20260906004658 69 54 3.0 11.0 0.00 0.00 0.00 70 1016.8
20260906004137 69 68 3.0 12.0 0.00 0.00 0.00 69 1016.9
20260906003635 69 32 3.0 11.0 0.00 0.00 0.00 70 1016.8
20260906003135 69 48 2.0 10.0 0.00 0.00 0.00 71 1016.8
20260906002635 70 97 5.0 13.0 0.00 0.00 0.00 71 1016.7
20260906001507 71 113 2.0 14.0 0.00 0.00 0.00 72 1016.5
20260906001007 71 79 3.0 14.0 0.00 0.00 0.00 72 1016.4
20260906000506 71 84 2.0 16.0 0.00 0.00 0.00 71 1016.2
20260906000004 71 91 3.0 12.0 0.00 0.00 0.00 70 1016.2
20260905235504 72 21 1.0 11.0 0.00 0.00 0.00 69 1016.2
20260905235003 72 41 1.0 10.0 0.00 0.00 0.00 68 1016.2
20260905234501 72 151 1.0 6.0 0.00 0.00 0.00 67 1016.1
20260905234002 73 35 0.0 4.0 0.00 0.00 0.00 66 1016.1
20260905233500 73 123 2.0 8.0 0.00 0.00 0.00 65 1016.2
20260905232958 73 91 2.0 9.0 0.00 0.00 0.00 65 1016.2
20260905232457 73 85 1.0 6.0 0.00 0.00 0.00 64 1016.2
20260905231957 74 337 0.0 2.0 0.00 0.00 0.00 64 1016.1
20260905231456 74 339 1.0 5.0 0.00 0.00 0.00 64 1016.1
20260905230954 74 130 0.0 0.0 0.00 0.00 0.00 63 1016.1
20260905230454 75 350 1.0 4.0 0.00 0.00 0.00 62 1016.0
20260905225952 75 70 2.0 9.0 0.00 0.00 0.00 61 1016.0
20260905225452 76 117 1.0 9.0 0.00 0.00 0.00 60 1015.9
20260905224950 77 121 2.0 8.0 0.00 0.00 0.00 59 1015.8
20260905224449 77 23 5.0 15.0 0.00 0.00 0.00 57 1015.6
20260905223949 79 0 2.0 8.0 0.00 0.00 0.00 57 1015.5
20260905223448 80 129 2.0 8.0 0.00 0.00 0.00 55 1015.3
20260905222946 82 121 3.0 13.0 0.00 0.00 0.00 52 1015.1
20260905222448 83 124 3.0 11.0 0.00 0.00 0.00 51 1015.1
20260905221944 82 115 4.0 12.0 0.00 0.00 0.00 53 1015.1
20260905221505 81 127 1.0 14.0 0.00 0.00 0.00 55 1015.1
20260905220943 78 121 4.0 11.0 0.00 0.00 0.00 57 1015.3
20260905220441 78 121 3.0 12.0 0.00 0.00 0.00 58 1015.4
20260905215941 78 358 5.0 13.0 0.00 0.00 0.00 57 1015.4
20260905215439 78 116 2.0 15.0 0.00 0.00 0.00 57 1015.4
20260905214938 78 24 1.0 5.0 0.00 0.00 0.00 58 1015.3
20260905214458 78 12 6.0 16.0 0.00 0.00 0.00 57 1015.3
20260905213936 78 11 3.0 13.0 0.00 0.00 0.00 57 1015.3
20260905213435 78 136 3.0 12.0 0.00 0.00 0.00 57 1015.2
20260905212934 78 140 4.0 11.0 0.00 0.00 0.00 56 1015.2
20260905212436 79 76 3.0 11.0 0.00 0.00 0.00 56 1015.2
20260905211932 78 22 4.0 15.0 0.00 0.00 0.00 56 1015.2
20260905211431 78 16 3.0 12.0 0.00 0.00 0.00 56 1015.2
20260905210930 78 75 5.0 11.0 0.00 0.00 0.00 56 1015.2
20260905210429 78 47 2.0 8.0 0.00 0.00 0.00 56 1015.1
20260905205928 78 60 4.0 12.0 0.00 0.00 0.00 56 1015.1
20260905205428 78 110 3.0 11.0 0.00 0.00 0.00 57 1015.2
20260905204926 78 104 2.0 12.0 0.00 0.00 0.00 58 1015.1
20260905204425 79 136 4.0 15.0 0.00 0.00 0.00 58 1015.1
20260905203924 79 6 4.0 9.0 0.00 0.00 0.00 58 1015.1
20260905203424 78 15 2.0 12.0 0.00 0.00 0.00 59 1015.1
20260905202921 78 138 4.0 13.0 0.00 0.00 0.00 58 1015.1
20260905202422 78 141 6.0 15.0 0.00 0.00 0.00 58 1015.1
20260905201921 79 118 6.0 16.0 0.00 0.00 0.00 58 1015.1
20260905201419 79 123 3.0 8.0 0.00 0.00 0.00 60 1015.1
20260905200938 79 17 3.0 12.0 0.00 0.00 0.00 60 1015.2
20260905200417 79 136 5.0 20.0 0.00 0.00 0.00 61 1015.3
20260905195916 79 133 3.0 9.0 0.00 0.00 0.00 60 1015.3
20260905195414 79 119 2.0 7.0 0.00 0.00 0.00 60 1015.3
20260905194913 80 128 1.0 8.0 0.00 0.00 0.00 60 1015.2
20260905194434 80 3 3.0 6.0 0.00 0.00 0.00 58 1015.2
20260905193912 80 136 1.0 8.0 0.00 0.00 0.00 59 1015.2
20260905193411 80 149 4.0 10.0 0.00 0.00 0.00 58 1015.2
20260905192931 81 140 1.0 7.0 0.00 0.00 0.00 61 1015.3
20260905192408 80 14 2.0 8.0 0.00 0.00 0.00 60 1015.4
20260905191908 80 20 2.0 7.0 0.00 0.00 0.00 60 1015.4
20260905191427 81 11 4.0 11.0 0.00 0.00 0.00 59 1015.3
20260905190906 81 107 3.0 8.0 0.00 0.00 0.00 61 1015.3
20260905190426 81 27 6.0 16.0 0.00 0.00 0.00 58 1015.3
20260905185924 82 136 6.0 16.0 0.00 0.00 0.00 57 1015.3
20260905185423 83 145 4.0 10.0 0.00 0.00 0.00 56 1015.3
20260905184902 84 142 5.0 17.0 0.00 0.00 0.00 55 1015.3
20260905184402 84 172 7.0 15.0 0.00 0.00 0.00 55 1015.3
20260905183859 83 113 4.0 10.0 0.00 0.00 0.00 54 1015.4
20260905183400 84 140 5.0 17.0 0.00 0.00 0.00 54 1015.4
20260905182857 84 134 5.0 12.0 0.00 0.00 0.00 52 1015.3
20260905182356 85 122 4.0 10.0 0.00 0.00 0.00 51 1015.2
20260905181857 86 23 3.0 11.0 0.00 0.00 0.00 51 1015.2
20260905181357 85 136 7.0 12.0 0.00 0.00 0.00 53 1015.3
20260905180854 85 113 4.0 14.0 0.00 0.00 0.00 54 1015.3
20260905180353 84 352 0.0 6.0 0.00 0.00 0.00 57 1015.3
20260905175851 85 158 3.0 11.0 0.00 0.00 0.00 54 1015.2
20260905175412 84 131 5.0 10.0 0.00 0.00 0.00 52 1015.2
20260905174849 85 84 4.0 14.0 0.00 0.00 0.00 52 1015.2
20260905174348 85 117 2.0 8.0 0.00 0.00 0.00 55 1015.2
20260905173847 84 85 3.0 15.0 0.00 0.00 0.00 54 1015.2
20260905173346 85 128 3.0 13.0 0.00 0.00 0.00 56 1015.2
20260905172845 84 147 2.0 7.0 0.00 0.00 0.00 60 1015.2
20260905172405 83 149 3.0 8.0 0.00 0.00 0.00 60 1015.4
20260905171843 82 137 7.0 13.0 0.00 0.00 0.00 57 1015.5
20260905171345 83 134 6.0 14.0 0.00 0.00 0.00 56 1015.5
20260905170841 83 142 5.0 16.0 0.00 0.00 0.00 59 1015.5
20260905170341 80 127 2.0 11.0 0.00 0.00 0.00 61 1015.8
20260905165840 80 125 4.0 10.0 0.00 0.00 0.00 62 1015.9
20260905165339 80 278 1.0 4.0 0.00 0.00 0.00 63 1015.9
20260905164837 80 153 1.0 5.0 0.00 0.00 0.00 65 1016.0
20260905164336 79 157 3.0 11.0 0.00 0.00 0.00 62 1016.0
20260905163836 80 149 4.0 11.0 0.00 0.00 0.00 63 1015.9
20260905163336 80 144 4.0 9.0 0.00 0.00 0.00 63 1015.9
20260905162833 79 138 4.0 10.0 0.00 0.00 0.00 67 1015.9
20260905162332 79 161 0.0 1.0 0.00 0.00 0.00 67 1016.0
20260905161832 79 126 2.0 11.0 0.00 0.00 0.00 64 1016.0
20260905161330 79 110 5.0 14.0 0.00 0.00 0.00 63 1016.0
20260905160851 79 136 1.0 7.0 0.00 0.00 0.00 64 1015.9
20260905160328 79 128 4.0 18.0 0.00 0.00 0.00 65 1015.9
20260905155828 79 153 3.0 8.0 0.00 0.00 0.00 64 1015.8
20260905155327 80 129 5.0 17.0 0.00 0.00 0.00 64 1015.8
20260905154825 79 60 2.0 9.0 0.00 0.00 0.00 67 1015.8
20260905154324 78 123 5.0 18.0 0.00 0.00 0.00 68 1015.8
20260905153823 79 115 2.0 13.0 0.00 0.00 0.00 67 1015.8
20260905153322 78 132 3.0 10.0 0.00 0.00 0.00 68 1015.8
20260905152843 77 143 4.0 14.0 0.00 0.00 0.00 70 1015.7
20260905152320 76 140 5.0 14.0 0.00 0.00 0.00 69 1015.8
20260905151819 76 143 5.0 14.0 0.00 0.00 0.00 71 1015.9
20260905151318 75 133 5.0 19.0 0.00 0.00 0.00 73 1015.9
20260905150839 75 126 2.0 13.0 0.00 0.00 0.00 75 1015.9
20260905150317 75 120 3.0 14.0 0.00 0.00 0.00 75 1015.9
20260905145815 75 92 2.0 7.0 0.00 0.00 0.00 74 1015.8
20260905145314 75 137 4.0 13.0 0.00 0.00 0.00 73 1015.8
20260905144813 75 144 4.0 13.0 0.00 0.00 0.00 74 1015.8
20260905144312 75 107 4.0 11.0 0.00 0.00 0.00 75 1015.8
20260905143814 75 141 2.0 8.0 0.00 0.00 0.00 77 1015.8
20260905143332 74 106 1.0 4.0 0.00 0.00 0.00 78 1015.8
20260905142810 74 117 1.0 7.0 0.00 0.00 0.00 79 1015.7
20260905142308 73 135 5.0 15.0 0.00 0.00 0.00 80 1015.7
20260905141810 72 131 4.0 13.0 0.00 0.00 0.00 81 1015.7
20260905141306 72 170 1.0 7.0 0.00 0.00 0.00 81 1015.6
20260905140806 72 145 2.0 7.0 0.00 0.00 0.00 83 1015.6
20260905140304 70 175 1.0 4.0 0.00 0.00 0.00 85 1015.7
20260905135803 70 117 4.0 13.0 0.00 0.00 0.00 84 1015.8
20260905135302 70 144 1.0 7.0 0.00 0.00 0.00 85 1015.9
20260905134802 70 58 1.0 5.0 0.00 0.00 0.00 85 1016.0
20260905134300 70 20 1.0 6.0 0.00 0.00 0.00 85 1015.9
20260905133759 70 112 3.0 7.0 0.00 0.00 0.00 85 1015.9
20260905133319 70 34 1.0 5.0 0.00 0.00 0.00 86 1015.9
20260905132757 69 27 1.0 9.0 0.00 0.00 0.00 87 1015.9
20260905132256 69 106 3.0 9.0 0.00 0.00 0.00 87 1015.9